Retour au catalogue

PSLV R/B

ActifVLEO
NORAD 46915·ROCKET BODY·🇮🇳 India

Lancé Nov 7, 2020 depuis Satish Dhawan Space Centre

Loading…

Prochains Passages (prochaines 24 heures)

TLE

FraisSource: Space-Track

Époque: Sep 14, 2026, 10:46 UTC

1 46915U 20081L   26257.44900111  .00009353  00000-0  23032-3 0  9991
2 46915  36.8460  36.2604 0021756 332.8583  27.1031 15.39815407324846

Suivez PSLV R/B en temps réel avec AllMySat

Download on the App Store